Погода в Новоширокинском

Россия / Забайкальский край     51°34′33″N   118°38′58″E
темп.,
°C
ветер,
м/с
пор.,
м/с
влажн.,
%
обл.,
%
осадки,
мм/ч
давл.,
гПа
погр.,
м
19 мая, ср
ср1900:00+2ю117985 0.0 100410
03:00+1ююз117898 0.0 100510
06:00+2ю117198 0.0 100410
09:00+10ююз1433100 0.0 10011005
12:00+13юз4730100 0.0 9982245
15:00+10юз5656100 0.0 9991300
18:00+11сз3650100 0.1 9981768
21:00+6ююв11705 0.1 100010
20 мая, чт
чт2000:00+4ю22755 0.0 100213
03:00+2юз11850 0.0 100310
06:00+2з118215 0.0 100512
09:00+11зсз123697 0.0 1003604
12:00+15юз3525100 0.0 10011963
15:00+15юз4844100 0.0 10002086
18:00+15ююв41045100 0.0 9971379
21:00+11юз2872100 0.3 1000302
21 мая, пт
пт2100:00+8св119180 0.0 100112
03:00+6св2296100 0.0 100265
06:00+6св2496100 0.1 1002335
09:00+7в378299 0.1 1001524
12:00+16вюв575387 0.0 9971001
15:00+21ююв374381 0.0 9951584
18:00+15св597067 0.6 994323
21:00+9всв3694100 1.3 996242
22 мая, сб
сб2200:00+6ссв2498100 0.3 997226
03:00+6ссв3897100 0.4 998468
06:00+6с2497100 0.0 996385
09:00+6ссз3695100 0.1 996597
12:00+3зсз3796100 1.2 998572
15:00+3сз599299 3.8 1000567
18:00+4сз5885100 0.1 1001713
21:00+3сз3887100 0.1 1000784
23 мая, вс
вс2300:00+3зсз2793100 0.0 1000560
03:00+2зсз3797100 0.1 1000466
06:00+1сз2599100 0.7 1000272
09:00+2зсз3997100 1.2 1001507
12:00+4зсз5882100 0.6 10011114
15:00+6сз6980100 2.1 10011263
18:00+6сз5117699 0.9 10021474
21:00+3сз5118283 1.3 1005798